| time (UTC) | temp F | wind direction | speed knots | gust knots | rain 1hr in | rain 24hr in | rain mn in | humidity % | barometer mb |
| 20260504231839 | 55 | 302 | 3.5 | 7.8 | 0.00 | 0.04 | 0.00 | 71 | 1005.2 |
| 20260504231323 | 56 | 300 | 3.5 | 7.8 | 0.00 | 0.04 | 0.00 | 71 | 1005.1 |
| 20260504230848 | 56 | 292 | 4.3 | 9.6 | 0.00 | 0.04 | 0.00 | 70 | 1005.0 |
| 20260504230333 | 56 | 292 | 4.3 | 10.4 | 0.00 | 0.04 | 0.00 | 70 | 1004.9 |
| 20260504225821 | 56 | 275 | 6.1 | 10.4 | 0.00 | 0.05 | 0.00 | 69 | 1004.8 |
| 20260504225347 | 56 | 292 | 5.2 | 8.7 | 0.00 | 0.05 | 0.00 | 68 | 1004.6 |
| 20260504224831 | 57 | 286 | 4.3 | 9.6 | 0.00 | 0.05 | 0.00 | 68 | 1004.6 |
| 20260504224335 | 57 | 286 | 284.2 | 284.2 | 0.00 | 0.00 | 0.00 | 68 | 1004.7 |
| 20260504223841 | 57 | 303 | 7.8 | 12.2 | 0.00 | 0.05 | 0.00 | 67 | 1004.6 |
| 20260504223325 | 57 | 296 | 6.1 | 9.6 | 0.00 | 0.05 | 0.00 | 66 | 1004.5 |
| 20260504222830 | 58 | 298 | 5.2 | 8.7 | 0.00 | 0.05 | 0.00 | 66 | 1004.5 |
| 20260504222334 | 58 | 290 | 5.2 | 9.6 | 0.00 | 0.05 | 0.00 | 67 | 1004.4 |
| 20260504221838 | 58 | 303 | 6.1 | 9.6 | 0.00 | 0.05 | 0.00 | 67 | 1004.3 |
| 20260504221322 | 58 | 274 | 4.3 | 9.6 | 0.00 | 0.05 | 0.00 | 66 | 1004.2 |
| 20260504220826 | 58 | 310 | 6.1 | 10.4 | 0.00 | 0.05 | 0.00 | 66 | 1004.2 |
| 20260504220331 | 58 | 293 | 6.1 | 11.3 | 0.00 | 0.05 | 0.00 | 66 | 1004.1 |
| 20260504215820 | 58 | 281 | 7.0 | 13.0 | 0.00 | 0.07 | 0.00 | 65 | 1004.1 |
| 20260504215325 | 58 | 280 | 7.8 | 13.0 | 0.00 | 0.07 | 0.00 | 64 | 1003.9 |
| 20260504214851 | 58 | 281 | 7.0 | 12.2 | 0.00 | 0.07 | 0.00 | 64 | 1003.9 |
| 20260504214335 | 58 | 298 | 7.0 | 14.8 | 0.00 | 0.07 | 0.00 | 64 | 1003.8 |
| 20260504213838 | 59 | 260 | 8.7 | 14.8 | 0.00 | 0.07 | 0.00 | 64 | 1003.8 |
| 20260504213324 | 59 | 265 | 6.1 | 10.4 | 0.00 | 0.07 | 0.00 | 64 | 1003.8 |
| 20260504212849 | 59 | 281 | 6.1 | 10.4 | 0.00 | 0.07 | 0.00 | 63 | 1003.7 |
| 20260504212333 | 59 | 315 | 5.2 | 7.8 | 0.00 | 0.07 | 0.00 | 63 | 1003.6 |
| 20260504211836 | 59 | 271 | 5.2 | 8.7 | 0.00 | 0.07 | 0.00 | 63 | 1003.6 |
| 20260504211341 | 59 | 288 | 4.3 | 8.7 | 0.00 | 0.07 | 0.00 | 63 | 1003.5 |
| 20260504210823 | 59 | 292 | 6.1 | 7.8 | 0.00 | 0.07 | 0.00 | 63 | 1003.6 |
| 20260504210327 | 59 | 302 | 5.2 | 8.7 | 0.00 | 0.07 | 0.00 | 63 | 1003.6 |
| 20260504205835 | 58 | 290 | 2.6 | 7.0 | 0.00 | 0.09 | 0.00 | 64 | 1003.5 |
| 20260504205340 | 58 | 301 | 3.5 | 10.4 | 0.00 | 0.09 | 0.00 | 64 | 1003.5 |
| 20260504204843 | 58 | 254 | 6.1 | 13.9 | 0.00 | 0.09 | 0.00 | 63 | 1003.4 |
| 20260504204347 | 58 | 288 | 5.2 | 13.9 | 0.00 | 0.09 | 0.00 | 63 | 1003.5 |
| 20260504203827 | 58 | 253 | 4.3 | 9.6 | 0.00 | 0.09 | 0.00 | 64 | 1003.6 |
| 20260504203331 | 58 | 292 | 6.1 | 13.0 | 0.00 | 0.09 | 0.00 | 64 | 1003.5 |
| 20260504202836 | 58 | 282 | 7.0 | 13.0 | 0.00 | 0.09 | 0.00 | 64 | 1003.6 |
| 20260504202320 | 58 | 261 | 6.1 | 13.0 | 0.00 | 0.09 | 0.00 | 64 | 1003.6 |
| 20260504201824 | 58 | 304 | 7.0 | 13.9 | 0.00 | 0.09 | 0.00 | 64 | 1003.5 |
| 20260504201330 | 58 | 296 | 8.7 | 13.9 | 0.00 | 0.09 | 0.00 | 63 | 1003.5 |
| 20260504200834 | 58 | 271 | 8.7 | 13.9 | 0.00 | 0.09 | 0.00 | 64 | 1003.5 |
| 20260504200358 | 58 | 305 | 4.3 | 10.4 | 0.00 | 0.09 | 0.00 | 66 | 1003.6 |
| 20260504195822 | 58 | 271 | 5.2 | 10.4 | 0.00 | 0.12 | 0.00 | 66 | 1003.5 |
| 20260504195331 | 58 | 306 | 6.1 | 10.4 | 0.00 | 0.12 | 0.00 | 65 | 1003.4 |
| 20260504194835 | 58 | 276 | 5.2 | 12.2 | 0.00 | 0.12 | 0.00 | 66 | 1003.5 |
| 20260504194340 | 58 | 259 | 6.1 | 12.2 | 0.00 | 0.12 | 0.00 | 64 | 1003.4 |
| 20260504193823 | 59 | 284 | 2.6 | 9.6 | 0.00 | 0.12 | 0.00 | 66 | 1003.3 |
| 20260504193328 | 58 | 283 | 3.5 | 12.2 | 0.00 | 0.12 | 0.00 | 66 | 1003.4 |
| 20260504192833 | 57 | 271 | 6.1 | 13.0 | 0.00 | 0.12 | 0.00 | 68 | 1003.5 |
| 20260504192337 | 56 | 302 | 7.0 | 12.2 | 0.00 | 0.12 | 0.00 | 70 | 1003.6 |
| 20260504191821 | 56 | 281 | 7.8 | 13.9 | 0.00 | 0.12 | 0.00 | 70 | 1003.7 |
| 20260504191327 | 56 | 298 | 7.8 | 13.9 | 0.00 | 0.12 | 0.00 | 70 | 1003.7 |
| 20260504190832 | 56 | 300 | 8.7 | 13.9 | 0.00 | 0.12 | 0.00 | 72 | 1003.8 |
| 20260504190336 | 56 | 293 | 8.7 | 13.0 | 0.00 | 0.12 | 0.00 | 73 | 1003.8 |
| 20260504185824 | 55 | 269 | 7.8 | 13.9 | 0.00 | 0.18 | 0.00 | 74 | 1003.9 |
| 20260504185327 | 55 | 280 | 5.2 | 13.9 | 0.00 | 0.18 | 0.00 | 75 | 1003.9 |
| 20260504184852 | 54 | 259 | 6.1 | 10.4 | 0.00 | 0.18 | 0.00 | 75 | 1003.9 |
| 20260504184335 | 54 | 258 | 7.0 | 10.4 | 0.00 | 0.18 | 0.00 | 74 | 1003.9 |
| 20260504183820 | 54 | 262 | 5.2 | 13.0 | 0.00 | 0.18 | 0.00 | 73 | 1004.0 |
| 20260504183324 | 54 | 298 | 5.2 | 13.9 | 0.00 | 0.18 | 0.00 | 72 | 1004.0 |
| 20260504182830 | 55 | 259 | 8.7 | 13.9 | 0.00 | 0.18 | 0.00 | 70 | 1004.0 |
| 20260504182334 | 55 | 281 | 7.8 | 13.9 | 0.00 | 0.18 | 0.00 | 69 | 1003.9 |
| 20260504181838 | 56 | 307 | 8.7 | 15.6 | 0.00 | 0.18 | 0.00 | 66 | 1003.8 |
| 20260504181322 | 56 | 298 | 10.4 | 15.6 | 0.00 | 0.18 | 0.00 | 62 | 1003.6 |
| 20260504180827 | 57 | 263 | 6.1 | 14.8 | 0.00 | 0.18 | 0.00 | 58 | 1003.6 |
| 20260504180336 | 57 | 284 | 9.6 | 14.8 | 0.00 | 0.18 | 0.00 | 56 | 1003.3 |
| 20260504175820 | 58 | 289 | 6.1 | 17.4 | 0.00 | 0.30 | 0.00 | 56 | 1003.0 |
| 20260504175325 | 58 | 222 | 9.6 | 17.4 | 0.00 | 0.30 | 0.00 | 53 | 1002.9 |
| 20260504174829 | 59 | 301 | 7.8 | 15.6 | 0.00 | 0.30 | 0.00 | 51 | 1002.7 |
| 20260504174353 | 60 | 232 | 9.6 | 15.6 | 0.00 | 0.30 | 0.00 | 47 | 1002.6 |
| 20260504173838 | 60 | 236 | 4.3 | 14.8 | 0.00 | 0.30 | 0.00 | 47 | 1002.6 |
| 20260504173321 | 61 | 270 | 7.0 | 14.8 | 0.00 | 0.30 | 0.00 | 45 | 1002.5 |
| 20260504172846 | 61 | 257 | 7.0 | 14.8 | 0.00 | 0.30 | 0.00 | 44 | 1002.4 |
| 20260504172330 | 62 | 273 | 5.2 | 14.8 | 0.00 | 0.30 | 0.00 | 44 | 1002.4 |
| 20260504171834 | 63 | 283 | 6.1 | 15.6 | 0.00 | 0.30 | 0.00 | 40 | 1002.4 |
| 20260504171338 | 63 | 237 | 7.0 | 12.2 | 0.00 | 0.30 | 0.00 | 43 | 1002.5 |
| 20260504170823 | 62 | 275 | 4.3 | 12.2 | 0.00 | 0.30 | 0.00 | 44 | 1002.6 |
| 20260504170331 | 61 | 292 | 5.2 | 16.5 | 0.00 | 0.30 | 0.00 | 42 | 1002.6 |
| 20260504160326 | 61 | 286 | 5.2 | 14.8 | 0.00 | 0.36 | 0.00 | 49 | 1003.5 |
| 20260504150853 | 57 | 277 | 7.8 | 12.2 | 0.00 | 0.38 | 0.00 | 50 | 1004.3 |
| 20260504150336 | 57 | 226 | 5.2 | 13.0 | 0.00 | 0.38 | 0.00 | 51 | 1004.5 |
| 20260504141325 | 54 | 342 | 6.1 | 13.9 | 0.00 | 0.40 | 0.00 | 53 | 1005.0 |
| 20260504140834 | 54 | 230 | 7.0 | 13.0 | 0.00 | 0.40 | 0.00 | 54 | 1005.0 |
| 20260504140339 | 53 | 304 | 7.8 | 17.4 | 0.00 | 0.40 | 0.00 | 53 | 1005.0 |
| 20260504130338 | 50 | 269 | 8.7 | 13.9 | 0.00 | 0.45 | 0.00 | 59 | 1005.5 |
| 20260504110328 | 41 | 284 | 6.1 | 8.7 | 0.00 | 0.54 | 0.00 | 82 | 1004.8 |
| 20260504100324 | 37 | 259 | 5.2 | 8.7 | 0.00 | 0.57 | 0.00 | 88 | 1004.1 |
| 20260504081826 | 38 | 293 | 6.1 | 9.6 | 0.00 | 0.67 | 0.00 | 89 | 1002.9 |
| 20260504081330 | 38 | 293 | 5.2 | 7.0 | 0.00 | 0.67 | 0.00 | 89 | 1003.0 |
| 20260504080834 | 38 | 289 | 4.3 | 7.8 | 0.00 | 0.67 | 0.00 | 89 | 1002.8 |
| 20260504080339 | 38 | 286 | 4.3 | 7.8 | 0.00 | 0.67 | 0.00 | 89 | 1002.7 |
| 20260504070353 | 40 | 277 | 5.2 | 8.7 | 0.00 | 0.72 | 0.00 | 89 | 1002.3 |
| 20260504050323 | 43 | 301 | 5.2 | 11.3 | 0.00 | 0.73 | 0.00 | 91 | 1001.3 |
| 20260504045847 | 43 | 272 | 7.0 | 10.4 | 0.00 | 0.73 | 0.00 | 91 | 1001.2 |
| 20260504045331 | 43 | 286 | 7.0 | 11.3 | 0.00 | 0.73 | 0.00 | 91 | 1001.1 |
| 20260504044835 | 43 | 286 | 6.1 | 11.3 | 0.00 | 0.73 | 0.00 | 91 | 1001.1 |
| 20260504044400 | 43 | 298 | 7.8 | 14.8 | 0.00 | 0.73 | 0.00 | 91 | 1001.0 |
| 20260504043823 | 43 | 279 | 7.0 | 13.0 | 0.00 | 0.73 | 0.00 | 92 | 1001.1 |
| 20260504043328 | 43 | 294 | 7.8 | 13.0 | 0.00 | 0.73 | 0.00 | 92 | 1001.0 |
| 20260504042852 | 43 | 264 | 7.0 | 13.0 | 0.00 | 0.73 | 0.00 | 92 | 1001.0 |
| 20260504042336 | 43 | 242 | 7.0 | 11.3 | 0.00 | 0.73 | 0.00 | 92 | 1000.9 |
| 20260504041840 | 43 | 280 | 7.0 | 11.3 | 0.00 | 0.73 | 0.00 | 92 | 1000.8 |
| 20260504041324 | 43 | 284 | 7.0 | 11.3 | 0.00 | 0.73 | 0.00 | 92 | 1000.8 |
| 20260504040847 | 43 | 289 | 7.0 | 12.2 | 0.00 | 0.73 | 0.00 | 92 | 1000.7 |
| 20260504040335 | 43 | 254 | 7.8 | 12.2 | 0.00 | 0.73 | 0.00 | 92 | 1000.6 |
| 20260504035859 | 43 | 296 | 7.8 | 15.6 | 0.00 | 0.73 | 0.73 | 92 | 1000.7 |
| 20260504035323 | 43 | 306 | 9.6 | 15.6 | 0.00 | 0.73 | 0.73 | 92 | 1000.6 |
| 20260504034827 | 43 | 271 | 7.8 | 12.2 | 0.00 | 0.73 | 0.73 | 92 | 1000.5 |
| 20260504034332 | 43 | 282 | 7.0 | 13.9 | 0.00 | 0.73 | 0.73 | 92 | 1000.5 |
| 20260504033835 | 43 | 264 | 7.8 | 13.9 | 0.00 | 0.73 | 0.73 | 92 | 1000.5 |
| 20260504033320 | 43 | 296 | 6.1 | 13.0 | 0.00 | 0.73 | 0.73 | 92 | 1000.4 |
| 20260504032846 | 43 | 302 | 7.0 | 12.2 | 0.00 | 0.73 | 0.73 | 92 | 1000.4 |
| 20260504032328 | 43 | 279 | 7.8 | 11.3 | 0.00 | 0.73 | 0.73 | 92 | 1000.3 |
| 20260504031833 | 43 | 284 | 7.0 | 10.4 | 0.00 | 0.73 | 0.73 | 92 | 1000.2 |
| 20260504031358 | 43 | 284 | 6.1 | 11.3 | 0.00 | 0.73 | 0.73 | 92 | 1000.2 |
| 20260504030822 | 43 | 275 | 7.0 | 11.3 | 0.01 | 0.73 | 0.73 | 92 | 1000.2 |
| 20260504030327 | 43 | 289 | 7.0 | 13.0 | 0.01 | 0.73 | 0.73 | 92 | 1000.1 |
| 20260504025836 | 43 | 298 | 6.1 | 13.0 | 0.01 | 0.73 | 0.73 | 92 | 1000.1 |
| 20260504025339 | 43 | 297 | 6.1 | 12.2 | 0.01 | 0.73 | 0.73 | 92 | 1000.0 |
| 20260504024825 | 43 | 298 | 7.8 | 12.2 | 0.01 | 0.73 | 0.73 | 92 | 999.9 |
| 20260504024328 | 43 | 265 | 7.0 | 11.3 | 0.01 | 0.73 | 0.73 | 92 | 999.9 |
| 20260504023833 | 43 | 245 | 7.0 | 11.3 | 0.01 | 0.73 | 0.73 | 92 | 999.8 |
| 20260504023336 | 43 | 288 | 5.2 | 13.9 | 0.01 | 0.73 | 0.73 | 92 | 999.8 |
| 20260504022900 | 43 | 298 | 6.1 | 13.9 | 0.01 | 0.73 | 0.73 | 92 | 999.8 |
| 20260504022323 | 43 | 304 | 7.0 | 13.0 | 0.02 | 0.73 | 0.73 | 92 | 999.8 |
| 20260504021847 | 43 | 300 | 7.8 | 13.0 | 0.02 | 0.73 | 0.73 | 92 | 999.8 |
| 20260504021329 | 43 | 281 | 7.0 | 12.2 | 0.02 | 0.73 | 0.73 | 92 | 999.9 |
| 20260504020834 | 43 | 313 | 6.1 | 12.2 | 0.01 | 0.72 | 0.72 | 92 | 999.9 |
| 20260504020338 | 43 | 278 | 7.0 | 12.2 | 0.01 | 0.72 | 0.72 | 92 | 999.9 |
| 20260504015827 | 43 | 272 | 7.0 | 12.2 | 0.01 | 0.72 | 0.72 | 92 | 999.9 |
| 20260504015352 | 43 | 306 | 6.1 | 14.8 | 0.01 | 0.72 | 0.72 | 92 | 999.9 |
| 20260504014855 | 43 | 287 | 6.1 | 14.8 | 0.01 | 0.72 | 0.72 | 92 | 999.9 |
| 20260504014338 | 43 | 279 | 6.1 | 11.3 | 0.01 | 0.72 | 0.72 | 92 | 999.8 |
| 20260504013824 | 43 | 105 | 6.1 | 14.8 | 0.01 | 0.72 | 0.72 | 93 | 999.7 |
| 20260504013347 | 43 | 291 | 7.8 | 10.4 | 0.01 | 0.72 | 0.72 | 93 | 999.6 |
| 20260504012831 | 43 | 284 | 7.0 | 12.2 | 0.02 | 0.72 | 0.72 | 93 | 999.7 |
| 20260504012337 | 43 | 281 | 7.8 | 12.2 | 0.01 | 0.71 | 0.71 | 93 | 999.7 |
| 20260504011820 | 43 | 277 | 6.1 | 13.0 | 0.01 | 0.71 | 0.71 | 93 | 999.6 |
| 20260504011325 | 43 | 331 | 7.0 | 13.0 | 0.01 | 0.71 | 0.71 | 93 | 999.6 |
| 20260504010829 | 43 | 299 | 7.8 | 13.0 | 0.01 | 0.71 | 0.71 | 93 | 999.4 |
| 20260504010334 | 43 | 278 | 6.1 | 13.0 | 0.01 | 0.71 | 0.71 | 93 | 999.4 |
| 20260504005857 | 43 | 294 | 6.1 | 13.0 | 0.01 | 0.71 | 0.71 | 93 | 999.4 |
| 20260504005321 | 43 | 274 | 7.8 | 12.2 | 0.01 | 0.71 | 0.71 | 92 | 999.3 |
| 20260504004828 | 43 | 256 | 6.1 | 12.2 | 0.01 | 0.71 | 0.71 | 92 | 999.2 |
| 20260504004334 | 43 | 276 | 6.1 | 12.2 | 0.01 | 0.71 | 0.71 | 92 | 999.1 |
| 20260504003839 | 43 | 251 | 5.2 | 13.0 | 0.01 | 0.71 | 0.71 | 92 | 999.0 |
| 20260504003323 | 43 | 286 | 7.0 | 12.2 | 0.02 | 0.71 | 0.71 | 92 | 999.0 |
| 20260504002826 | 43 | 275 | 7.8 | 13.0 | 0.01 | 0.70 | 0.70 | 92 | 998.9 |
| 20260504002352 | 43 | 300 | 7.0 | 13.0 | 0.01 | 0.70 | 0.70 | 92 | 998.8 |
| 20260504001836 | 43 | 266 | 6.1 | 11.3 | 0.01 | 0.70 | 0.70 | 92 | 998.8 |
| 20260504001320 | 43 | 265 | 7.0 | 13.0 | 0.01 | 0.70 | 0.70 | 92 | 998.8 |
| 20260504000845 | 43 | 295 | 6.1 | 13.9 | 0.01 | 0.70 | 0.70 | 92 | 998.8 |
| 20260504000329 | 43 | 286 | 7.8 | 13.9 | 0.01 | 0.70 | 0.70 | 92 | 998.7 |
| 20260503235834 | 43 | 248 | 7.0 | 13.9 | 0.01 | 0.70 | 0.70 | 92 | 998.7 |
| 20260503235338 | 43 | 291 | 7.8 | 12.2 | 0.01 | 0.70 | 0.70 | 92 | 998.6 |
| 20260503234843 | 43 | 272 | 7.8 | 14.8 | 0.01 | 0.70 | 0.70 | 92 | 998.5 |
| 20260503234330 | 43 | 271 | 7.0 | 14.8 | 0.01 | 0.70 | 0.70 | 92 | 998.4 |
| 20260503233835 | 43 | 292 | 6.1 | 13.9 | 0.01 | 0.70 | 0.70 | 92 | 998.3 |
| 20260503233340 | 43 | 275 | 7.8 | 13.9 | 0.00 | 0.69 | 0.69 | 92 | 998.3 |
| 20260503232824 | 43 | 260 | 7.0 | 11.3 | 0.00 | 0.69 | 0.69 | 92 | 998.3 |
| 20260503232328 | 43 | 279 | 6.1 | 12.2 | 0.00 | 0.69 | 0.69 | 92 | 998.3 |